Regional Weather Roundup
Issued by NWS

Home | Current Version | Previous Version | Text Only | Print | Product List | Glossary Off
Versions: 1 2 3 4 5 6 7 8 9 10 11 12 13 14 15 16 17 18 19 20 21 22 23 24 25 26 27 28 29 30 31 32 33 34 35 36 37 38 39 40 41 42 43 44 45 46 47 48 49 50

000
ASUS45 KPSR 251600
RWRAZ

ARIZONA REGIONAL HOURLY WEATHER ROUNDUP
NATIONAL WEATHER SERVICE PHOENIX AZ
900 AM MST SAT APR 25 2015

NOTE: FAIR INDICATES FEW OR NO CLOUDS BELOW 12,000 FEET WITH NO
SIGNIFICANT WEATHER AND/OR OBSTRUCTIONS TO VISIBILITY.

AZZ001>003-036-251700-
NORTHWEST ARIZONA

CITY           SKY/WX    TMP DP  RH WIND       PRES   REMARKS
KINGMAN        MOSUNNY   61  32  33 S18G29    29.85F
$$

AZZ004>008-015-016-018-251700-
NORTH CENTRAL ARIZONA

CITY           SKY/WX    TMP DP  RH WIND       PRES   REMARKS
GRAND CANYON   CLOUDY    46  37  71 SW20G26   29.93F
WILLIAMS       CLOUDY    46  36  66 S12G21    30.02F
PRESCOTT       MOSUNNY   52  37  56 S16G25    29.95F
FLAGSTAFF      NOT AVBL
PAYSON         CLOUDY    50  41  71 S8        30.00S
PAGE           PTSUNNY   58  42  55 N8        29.84F
$$

AZZ009>014-017-251700-
NORTHEAST ARIZONA

CITY           SKY/WX    TMP DP  RH WIND       PRES   REMARKS
WINSLOW        NOT AVBL
SAINT JOHNS    SUNNY     56  32  40 VRB5      29.96F
WINDOW ROCK    CLOUDY    49  34  56 SW14      29.97F
SHOW LOW       MOSUNNY   48  27  43 S18       30.00S
$$

AZZ023-251700-
GREATER PHOENIX AREA

CITY           SKY/WX    TMP DP  RH WIND       PRES   REMARKS
PHOENIX        MOSUNNY   69  44  40 SE6       29.90F
GLENDALE       MOSUNNY   66  46  48 SE7       29.93S
DEER VALLEY    MOSUNNY   65  45  48 E6        29.92S
SCOTTSDALE     MOSUNNY   66  42  41 CALM      29.93F
MESA-FALCON    PTSUNNY   64  41  42 SE10      29.92S
MESA-GATEWAY   MOSUNNY   64  45  48 SE8       29.94S
CHANDLER       PTSUNNY   66  45  45 VRB6      29.92F
$$

AZZ027-028-251700-
SOUTHWEST MARICOPA COUNTY AND PINAL COUNTY

CITY           SKY/WX    TMP DP  RH WIND       PRES   REMARKS
CASA GRANDE    SUNNY     68  43  40 S5        29.92S
$$

AZZ503-504-507>509-251700-
SOUTHEAST ARIZONA

CITY           SKY/WX    TMP DP  RH WIND       PRES   REMARKS
TUCSON         SUNNY     66  37  34 VRB3      29.98S
RYAN FIELD       N/A     66  39  37 CALM      29.97S
NOGALES        SUNNY     64  31  28 S9        30.00S
SAFFORD        SUNNY     63  38  39 SW6       29.95F
$$

AZZ020-021-025-026-031-251700-
SOUTHWEST ARIZONA

CITY           SKY/WX    TMP DP  RH WIND       PRES   REMARKS
YUMA           MOSUNNY   69  46  43 NW9       29.90R
$$

CAZ031-033-041-043-047-048-061-251700-
SOUTHERN CALIFORNIA

CITY           SKY/WX    TMP DP  RH WIND       PRES   REMARKS
DOWNTOWN L.A.  CLOUDY    60  52  74 CALM      29.99S
L.A. AIRPORT   PTSUNNY   59  52  77 W9        29.99S
SAN DIEGO      CLOUDY    61  49  64 SW8       30.03R
BURBANK        CLOUDY    58  49  72 SW7       29.98S
ONTARIO        CLOUDY    57  48  72 W9        29.98S
RIVERSIDE      CLOUDY    58  50  75 W5        29.99R
PALM SPRINGS   CLOUDY    66  45  46 S7        29.87F
EL CENTRO NAS  PTSUNNY   71  43  36 W17       29.91R
IMPERIAL       SUNNY     70  47  43 W14       29.88S
BLYTHE         SUNNY     66  47  50 S5        29.86S
$$

NVZ020-UTZ003-251700-
SOUTHERN NEVADA-UTAH

CITY           SKY/WX    TMP DP  RH WIND       PRES   REMARKS
LAS VEGAS      NOT AVBL
SALT LAKE CITY PTSUNNY   49  37  63 SE6       29.80F
$$

NMZ009-TXZ055-251700-
NEW MEXICO-WEST TEXAS

CITY           SKY/WX    TMP DP  RH WIND       PRES   REMARKS
ALBUQUERQUE    MOSUNNY   55  36  48 VRB5      29.97F
EL PASO        MOSUNNY   66  29  24 W9        29.98F
$$


........................KEY........................
SKY/WX - SKY CONDITION/WEATHER
TMP    - TEMPERATURE IN FAHRENHEIT
DP     - DEW POINT IN FAHRENHEIT
RH     - RELATIVE HUMIDITY IN PERCENT
WIND   - DIRECTION AND SPEED IN MILES PER HOUR (MPH)
VRB    - VARIABLE WIND DIRECTION
PRES   - MEAN SEA LEVEL PRESSURE IN INCHES OF MERCURY
         F - FALLING PRESSURE   R - RISING PRESSURE
         S - STEADY PRESSURE
VSB    - VISIBILITY IN MILES
HX     - HEAT INDEX IN FAHRENHEIT
WCI    - WIND CHILL INDEX IN FAHRENHEIT
TC     - TEMPERATURE IN CELSIUS WHICH IS ALSO KNOWN AS
         TEMPERATURE IN CENTIGRADE
AFB    - AIR FORCE BASE
         LUKE AFB IS LUKE AIR FORCE BASE
         DAVIS-MONTHAN IS DAVIS-MONTHAN AIR FORCE BASE
NAS    - NAVAL AIR STATION
         EL CENTRO NAS IS EL CENTRO NAVAL AIR STATION
N/A    - NOT AVAILABLE



USA.gov is the U.S. government's official web portal to all federal, state and local government web resources and services.